Location: Harbor Side
(32.6101°N, 117.0814°W)
Time: 07:56:57
(UTC+00:00)

Cosmos 1802 Rocket - Pass Details

Date: 21 April 2021
Orbit: 953 x 1012 km, 82.9° (Epoch: 13 May)

Event Time Altitude Azimuth Distance (km) Brightness Sun altitude
Rises 12:41:21 0° 347° (NNW) 3,678 7.1 -6.9°
Reaches altitude 10° 12:43:56 10° 342° (NNW) 2,719 6.4 -6.4°
Maximum altitude 12:49:53 50° 269° (W) 1,211 4.2 -5.2°
Drops below altitude 10° 12:55:45 10° 196° (SSW) 2,676 6.0 -4.0°
Sets 12:58:18 0° 191° (S) 3,615 6.7 -3.5°
